GW2328 Weather Reports


Display with metric or nautical units.
time (UTC)temp
F
wind
direction
speed
MPH
gust
MPH
rain 1hr
in
rain 24hr
in
rain mn
in
humidity
%
barometer
mb
20260905022700 80 144 0.0 0.0 0.00 0.00 0.00 87 1018.4
20260905022155 80 144 0.0 0.0 0.00 0.00 0.00 87 1018.1
20260905021655 80 144 0.0 0.0 0.00 0.00 0.00 86 1018.3
20260905021150 81 144 0.0 0.0 0.00 0.00 0.00 86 1018.3
20260905020645 81 143 0.0 0.0 0.00 0.00 0.00 85 1018.4
20260905020140 81 143 0.0 0.0 0.00 0.00 0.00 85 1018.4
20260905015638 81 143 0.0 0.0 0.00 0.00 0.00 84 1018.2
20260905015133 81 143 0.0 0.0 0.00 0.00 0.00 84 1018.3
20260905014627 82 143 0.0 0.0 0.00 0.00 0.00 83 1018.1
20260905014123 82 147 0.0 0.0 0.00 0.00 0.00 83 1017.9
20260905013619 82 147 0.0 0.0 0.00 0.00 0.00 82 1018.2
20260905013114 82 145 0.0 0.0 0.00 0.00 0.00 82 1017.9
20260905012609 83 142 0.0 0.0 0.00 0.00 0.00 81 1018.0
20260905012106 83 142 0.0 0.0 0.00 0.00 0.00 81 1018.1
20260905011601 83 143 0.0 0.0 0.00 0.00 0.00 80 1017.8
20260905011056 84 143 0.0 0.0 0.00 0.00 0.00 79 1018.0
20260905010550 84 142 0.0 0.0 0.00 0.00 0.00 78 1017.9
20260905010047 84 146 0.0 0.0 0.00 0.00 0.00 77 1017.6
20260905005542 85 145 0.0 0.0 0.00 0.00 0.00 76 1017.6
20260905005038 85 146 0.0 0.0 0.00 0.00 0.00 75 1017.6
20260905004532 85 146 0.0 0.0 0.00 0.00 0.00 74 1017.6
20260905004027 86 146 0.0 0.0 0.00 0.00 0.00 74 1017.4
20260905003523 86 146 0.0 0.0 0.00 0.00 0.00 73 1017.4
20260905003019 87 146 0.0 0.0 0.00 0.00 0.00 72 1017.2
20260905002514 87 142 0.0 0.0 0.00 0.00 0.00 71 1017.0
20260905002008 87 142 0.0 0.0 0.00 0.00 0.00 71 1017.4
20260905001503 88 145 0.0 0.0 0.00 0.00 0.00 70 1017.4
20260905000957 88 145 0.0 0.0 0.00 0.00 0.00 70 1017.2
20260905000454 89 145 0.0 0.0 0.00 0.00 0.00 69 1017.4
20260904235948 89 145 0.0 0.0 0.00 0.00 0.00 67 1017.2
20260904235444 89 147 0.0 0.0 0.00 0.00 0.00 66 1017.2
20260904234944 90 148 0.0 0.0 0.00 0.00 0.00 66 1017.2
20260904234443 90 148 0.0 0.0 0.00 0.00 0.00 65 1017.0
20260904233940 91 147 0.0 0.0 0.00 0.00 0.00 64 1017.4
20260904233435 91 144 0.0 0.0 0.00 0.00 0.00 63 1017.3
20260904232931 92 144 0.0 0.0 0.00 0.00 0.00 62 1017.2
20260904232427 93 144 0.0 0.0 0.00 0.00 0.00 61 1017.4
20260904231923 93 142 0.0 0.0 0.00 0.00 0.00 60 1017.4
20260904231418 93 142 0.0 0.0 0.00 0.00 0.00 59 1017.3
20260904230913 94 141 0.0 0.0 0.00 0.00 0.00 58 1017.5
20260904230412 94 141 0.0 0.0 0.00 0.00 0.00 57 1017.4
20260904225907 95 141 0.0 0.0 0.00 0.00 0.00 56 1017.3
20260904225405 95 145 0.0 0.0 0.00 0.00 0.00 55 1017.2
20260904224904 95 145 0.0 0.0 0.00 0.00 0.00 53 1017.3
20260904224401 96 145 0.0 0.0 0.00 0.00 0.00 53 1017.6
20260904223855 96 147 0.0 0.0 0.00 0.00 0.00 51 1017.6
20260904223354 96 145 0.0 1.0 0.00 0.00 0.00 50 1017.6
20260904222850 97 141 0.0 0.0 0.00 0.00 0.00 49 1017.6
20260904222345 97 134 0.0 1.0 0.00 0.00 0.00 48 1017.6
20260904221844 97 142 0.0 0.0 0.00 0.00 0.00 48 1017.7
20260904221339 98 142 0.0 1.0 0.00 0.00 0.00 47 1017.9
20260904220835 98 135 0.0 1.0 0.00 0.00 0.00 46 1017.8
20260904220334 99 129 0.0 2.0 0.00 0.00 0.00 46 1017.7
20260904215829 99 145 0.0 0.0 0.00 0.00 0.00 46 1017.8
20260904215324 99 153 0.0 2.0 0.00 0.00 0.00 45 1017.8
20260904214821 99 144 0.0 1.0 0.00 0.00 0.00 44 1017.7
20260904214316 100 93 1.0 1.0 0.00 0.00 0.00 44 1017.8
20260904213814 100 163 1.0 2.0 0.00 0.00 0.00 44 1017.7
20260904213309 100 156 1.0 1.0 0.00 0.00 0.00 45 1017.8
20260904212805 99 140 1.0 2.0 0.00 0.00 0.00 45 1017.8
20260904212300 100 110 1.0 1.0 0.00 0.00 0.00 45 1017.8
20260904211755 100 137 1.0 1.0 0.00 0.00 0.00 45 1018.0
20260904211249 100 147 0.0 1.0 0.00 0.00 0.00 46 1017.9
20260904210745 100 189 1.0 2.0 0.00 0.00 0.00 46 1017.7
20260904210239 100 149 2.0 3.0 0.00 0.00 0.00 46 1017.8
20260904205736 100 70 2.0 3.0 0.00 0.00 0.00 45 1017.8
20260904205231 100 171 0.0 3.0 0.00 0.00 0.00 46 1017.9
20260904204728 100 142 0.0 1.0 0.00 0.00 0.00 46 1017.8
20260904204223 100 108 2.0 2.0 0.00 0.00 0.00 45 1017.9
20260904203719 101 120 1.0 2.0 0.00 0.00 0.00 45 1018.0
20260904203216 101 135 0.0 1.0 0.00 0.00 0.00 45 1018.0
20260904202711 100 139 0.0 2.0 0.00 0.00 0.00 45 1018.1
20260904202207 100 87 1.0 1.0 0.00 0.00 0.00 45 1018.2
20260904201708 101 134 0.0 2.0 0.00 0.00 0.00 45 1018.3
20260904201202 102 131 0.0 1.0 0.00 0.00 0.00 45 1018.4
20260904200656 102 351 2.0 3.0 0.00 0.00 0.00 44 1018.5
20260904200151 100 188 1.0 2.0 0.00 0.00 0.00 45 1018.6
20260904195650 100 257 2.0 3.0 0.00 0.00 0.00 45 1018.7
20260904195144 101 120 2.0 2.0 0.00 0.00 0.00 45 1018.8
20260904194644 101 165 0.0 1.0 0.00 0.00 0.00 46 1018.8
20260904194138 102 153 1.0 2.0 0.00 0.00 0.00 47 1018.9
20260904193633 100 139 0.0 2.0 0.00 0.00 0.00 47 1018.9
20260904193130 100 149 1.0 2.0 0.00 0.00 0.00 47 1018.9
20260904192630 100 94 2.0 2.0 0.00 0.00 0.00 47 1019.1
20260904192125 100 129 1.0 3.0 0.00 0.00 0.00 47 1019.1
20260904191622 100 134 1.0 2.0 0.00 0.00 0.00 47 1019.4
20260904191118 101 137 0.0 1.0 0.00 0.00 0.00 47 1019.2
20260904190614 102 144 2.0 3.0 0.00 0.00 0.00 46 1019.4
20260904190109 102 172 1.0 1.0 0.00 0.00 0.00 47 1019.2
20260904185605 101 164 2.0 5.0 0.00 0.00 0.00 47 1019.4
20260904185100 100 142 1.0 5.0 0.00 0.00 0.00 48 1019.4
20260904184559 100 154 1.0 3.0 0.00 0.00 0.00 48 1019.5
20260904184055 100 146 1.0 2.0 0.00 0.00 0.00 48 1019.6
20260904183550 99 134 1.0 3.0 0.00 0.00 0.00 48 1019.6
20260904183045 99 85 2.0 5.0 0.00 0.00 0.00 49 1019.9
20260904182541 99 142 1.0 1.0 0.00 0.00 0.00 50 1019.8
20260904182041 97 124 1.0 1.0 0.00 0.00 0.00 51 1019.7
20260904181536 98 134 2.0 3.0 0.00 0.00 0.00 49 1019.7
20260904181031 99 157 2.0 5.0 0.00 0.00 0.00 48 1019.9
20260904180531 98 135 0.0 2.0 0.00 0.00 0.00 49 1020.0
20260904180026 98 282 3.0 3.0 0.00 0.00 0.00 48 1020.0
20260904175520 100 119 2.0 5.0 0.00 0.00 0.00 49 1020.0
20260904175019 99 140 3.0 3.0 0.00 0.00 0.00 49 1020.1
20260904174514 98 142 0.0 1.0 0.00 0.00 0.00 49 1020.4
20260904174011 100 141 1.0 2.0 0.00 0.00 0.00 49 1020.3
20260904173511 100 144 0.0 1.0 0.00 0.00 0.00 51 1020.5
20260904173007 99 142 1.0 2.0 0.00 0.00 0.00 51 1020.5
20260904172502 99 106 2.0 2.0 0.00 0.00 0.00 52 1020.3
20260904172001 98 122 0.0 5.0 0.00 0.00 0.00 52 1020.5
20260904171456 98 147 1.0 3.0 0.00 0.00 0.00 52 1020.5
20260904170952 98 125 0.0 2.0 0.00 0.00 0.00 52 1020.3
20260904170447 99 151 0.0 3.0 0.00 0.00 0.00 52 1020.6
20260904165943 98 153 1.0 3.0 0.00 0.00 0.00 52 1020.6
20260904165442 98 137 0.0 1.0 0.00 0.00 0.00 52 1020.6
20260904164941 97 147 1.0 1.0 0.00 0.00 0.00 52 1020.6
20260904164436 98 100 1.0 2.0 0.00 0.00 0.00 52 1020.6
20260904163932 97 148 0.0 1.0 0.00 0.00 0.00 53 1020.6
20260904163431 97 142 0.0 3.0 0.00 0.00 0.00 53 1020.5
20260904162926 97 146 0.0 1.0 0.00 0.00 0.00 54 1020.5
20260904162421 97 125 1.0 2.0 0.00 0.00 0.00 53 1020.5
20260904161916 96 141 0.0 1.0 0.00 0.00 0.00 54 1020.7
20260904161406 96 112 0.0 3.0 0.00 0.00 0.00 54 1020.8
20260904160902 97 120 2.0 5.0 0.00 0.00 0.00 54 1020.6
20260904160357 96 134 0.0 1.0 0.00 0.00 0.00 55 1020.6
20260904155852 97 129 0.0 2.0 0.00 0.00 0.00 55 1020.7
20260904155346 96 138 0.0 1.0 0.00 0.00 0.00 57 1020.5
20260904154844 96 117 0.0 1.0 0.00 0.00 0.00 58 1020.7
20260904154339 96 157 0.0 2.0 0.00 0.00 0.00 59 1020.6
20260904153835 96 152 2.0 3.0 0.00 0.00 0.00 61 1020.8
20260904153330 95 139 0.0 1.0 0.00 0.00 0.00 63 1020.7
20260904152826 94 135 0.0 1.0 0.00 0.00 0.00 65 1020.6
20260904152321 93 158 1.0 2.0 0.00 0.00 0.00 67 1020.7
20260904151816 93 141 1.0 2.0 0.00 0.00 0.00 69 1020.7
20260904151315 93 139 1.0 1.0 0.00 0.00 0.00 72 1020.7
20260904150811 92 143 0.0 0.0 0.00 0.00 0.00 74 1020.6
20260904150306 91 148 0.0 1.0 0.00 0.00 0.00 76 1020.7
20260904145804 91 144 0.0 0.0 0.00 0.00 0.00 78 1020.7
20260904145300 90 143 0.0 0.0 0.00 0.00 0.00 79 1020.6
20260904144755 89 143 0.0 1.0 0.00 0.00 0.00 81 1020.8
20260904144251 88 143 0.0 0.0 0.00 0.00 0.00 83 1020.9
20260904143747 87 145 0.0 0.0 0.00 0.00 0.00 84 1020.7
20260904143243 87 146 0.0 1.0 0.00 0.00 0.00 86 1020.6
20260904142739 87 151 0.0 0.0 0.00 0.00 0.00 88 1020.8
20260904142235 86 152 0.0 0.0 0.00 0.00 0.00 90 1020.7
20260904141735 86 153 0.0 0.0 0.00 0.00 0.00 92 1020.6
20260904141230 85 153 0.0 0.0 0.00 0.00 0.00 93 1020.6
20260904140726 83 158 0.0 0.0 0.00 0.00 0.00 94 1020.7
20260904140221 82 158 1.0 1.0 0.00 0.00 0.00 94 1020.7
20260904135719 81 154 0.0 0.0 0.00 0.00 0.00 96 1020.5
20260904135215 80 155 0.0 0.0 0.00 0.00 0.00 96 1020.4
20260904134711 80 155 0.0 0.0 0.00 0.00 0.00 97 1020.3
20260904134210 79 157 0.0 1.0 0.00 0.00 0.00 98 1020.5
20260904133705 78 151 0.0 1.0 0.00 0.00 0.00 99 1020.6
20260904133201 78 151 0.0 0.0 0.00 0.00 0.00 99 1020.5
20260904132700 77 151 0.0 0.0 0.00 0.00 0.00 99 1020.8
20260904132156 77 151 0.0 0.0 0.00 0.00 0.00 99 1020.8
20260904131655 76 151 0.0 0.0 0.00 0.00 0.00 99 1020.6
20260904131150 76 151 0.0 0.0 0.00 0.00 0.00 99 1020.6
20260904130645 75 151 0.0 0.0 0.00 0.00 0.00 99 1020.6
20260904130145 75 151 0.0 0.0 0.00 0.00 0.00 99 1020.8
20260904125641 75 151 0.0 0.0 0.00 0.00 0.00 99 1020.5
20260904125136 74 151 0.0 0.0 0.00 0.00 0.00 99 1020.6
20260904124631 74 151 0.0 0.0 0.00 0.00 0.00 99 1020.5
20260904124127 74 151 0.0 0.0 0.00 0.00 0.00 99 1020.3
20260904123626 73 151 0.0 0.0 0.00 0.00 0.00 99 1020.4
20260904123122 73 151 0.0 0.0 0.00 0.00 0.00 99 1020.4
20260904122617 73 151 0.0 0.0 0.00 0.00 0.00 99 1020.4
20260904122112 73 151 0.0 0.0 0.00 0.00 0.00 99 1020.3
20260904121608 72 151 0.0 0.0 0.00 0.00 0.00 99 1020.2
20260904121103 72 151 0.0 0.0 0.00 0.00 0.00 99 1020.3
20260904120559 72 151 0.0 0.0 0.00 0.00 0.00 99 1020.0
20260904120054 72 151 0.0 0.0 0.00 0.00 0.00 99 1020.2
20260904115549 72 151 0.0 0.0 0.00 0.00 0.00 99 1019.9
20260904115045 72 151 0.0 0.0 0.00 0.00 0.00 99 1020.1
20260904114544 72 151 0.0 0.0 0.00 0.00 0.00 99 1019.9
20260904114039 72 151 0.0 0.0 0.00 0.00 0.00 99 1019.9
20260904113538 72 151 0.0 0.0 0.00 0.00 0.00 99 1019.9
20260904113033 72 151 0.0 0.0 0.00 0.00 0.00 99 1019.8
20260904112528 72 151 0.0 0.0 0.00 0.00 0.00 99 1020.0
20260904112024 72 151 0.0 0.0 0.00 0.00 0.00 99 1020.1
20260904111519 72 151 0.0 0.0 0.00 0.00 0.00 99 1019.9
20260904111014 72 151 0.0 0.0 0.00 0.00 0.00 99 1019.7
20260904110509 72 151 0.0 0.0 0.00 0.00 0.00 99 1019.9
20260904110004 72 151 0.0 0.0 0.00 0.00 0.00 99 1020.0
20260904105458 72 151 0.0 0.0 0.00 0.00 0.00 99 1019.7
20260904104953 72 151 0.0 0.0 0.00 0.00 0.00 99 1019.8
20260904104448 72 151 0.0 0.0 0.00 0.00 0.00 99 1019.8
20260904103944 72 151 0.0 0.0 0.00 0.00 0.00 99 1019.8
20260904103440 72 151 0.0 0.0 0.00 0.00 0.00 99 1019.7
20260904102930 72 151 0.0 0.0 0.00 0.00 0.00 99 1019.6
20260904102426 72 151 0.0 0.0 0.00 0.00 0.00 99 1019.5
20260904101921 72 151 0.0 0.0 0.00 0.00 0.00 99 1019.7
20260904101418 72 151 0.0 0.0 0.00 0.00 0.00 99 1019.7
20260904100913 72 151 0.0 0.0 0.00 0.00 0.00 99 1019.7
20260904100408 72 151 0.0 0.0 0.00 0.00 0.00 99 1019.7
20260904095903 72 151 0.0 0.0 0.00 0.00 0.00 99 1019.7
20260904095357 72 151 0.0 0.0 0.00 0.00 0.00 99 1019.7
20260904094853 73 151 0.0 0.0 0.00 0.00 0.00 99 1019.8
20260904094348 72 151 0.0 0.0 0.00 0.00 0.00 99 1019.5
20260904093844 72 151 0.0 0.0 0.00 0.00 0.00 99 1019.6
20260904093344 72 151 0.0 0.0 0.00 0.00 0.00 99 1019.5
20260904092839 73 151 0.0 0.0 0.00 0.00 0.00 99 1019.7
20260904092336 73 151 0.0 0.0 0.00 0.00 0.00 98 1019.7
20260904091832 73 151 0.0 0.0 0.00 0.00 0.00 98 1019.5
20260904091327 73 151 0.0 0.0 0.00 0.00 0.00 98 1019.5
20260904090822 73 151 0.0 0.0 0.00 0.00 0.00 98 1019.5
20260904090318 73 151 0.0 0.0 0.00 0.00 0.00 98 1019.5
20260904085813 73 151 0.0 0.0 0.00 0.00 0.00 98 1019.6
20260904085308 73 151 0.0 0.0 0.00 0.00 0.00 98 1019.4
20260904084802 73 151 0.0 0.0 0.00 0.00 0.00 98 1019.4
20260904084258 73 151 0.0 0.0 0.00 0.00 0.00 98 1019.3
20260904083754 73 151 0.0 0.0 0.00 0.00 0.00 98 1019.4
20260904083250 73 151 0.0 0.0 0.00 0.00 0.00 98 1019.5
20260904082745 73 151 0.0 0.0 0.00 0.00 0.00 98 1019.6
20260904082239 73 151 0.0 0.0 0.00 0.00 0.00 98 1019.3
20260904081735 73 151 0.0 0.0 0.00 0.00 0.00 98 1019.5
20260904081231 73 151 0.0 0.0 0.00 0.00 0.00 98 1019.5
20260904080726 73 151 0.0 0.0 0.00 0.00 0.00 98 1019.5
20260904080222 73 151 0.0 0.0 0.00 0.00 0.00 98 1019.3
20260904075718 73 151 0.0 0.0 0.00 0.00 0.00 98 1019.4
20260904075213 73 151 0.0 0.0 0.00 0.00 0.00 98 1019.4
20260904074712 73 151 0.0 0.0 0.00 0.00 0.00 98 1019.4
20260904074206 73 151 0.0 0.0 0.00 0.00 0.00 98 1019.5
20260904073702 73 151 0.0 0.0 0.00 0.00 0.00 98 1019.3
20260904073158 73 151 0.0 0.0 0.00 0.00 0.00 98 1019.3
20260904072653 73 151 0.0 0.0 0.00 0.00 0.00 98 1019.3
20260904072148 74 151 0.0 0.0 0.00 0.00 0.00 97 1019.2
20260904071644 74 151 0.0 0.0 0.00 0.00 0.00 97 1019.2
20260904071139 74 151 0.0 0.0 0.00 0.00 0.00 97 1019.2
20260904070637 74 151 0.0 0.0 0.00 0.00 0.00 97 1019.6
20260904070132 74 151 0.0 0.0 0.00 0.00 0.00 97 1019.3
20260904065632 74 151 0.0 0.0 0.00 0.00 0.00 97 1019.3
20260904065130 74 151 0.0 0.0 0.00 0.00 0.00 97 1019.6
20260904064624 74 151 0.0 0.0 0.00 0.00 0.00 97 1019.4
20260904064119 74 151 0.0 0.0 0.00 0.00 0.00 97 1019.7
20260904063615 74 151 0.0 0.0 0.00 0.00 0.00 97 1019.5
20260904063110 74 151 0.0 0.0 0.00 0.00 0.00 97 1019.3
20260904062607 74 151 0.0 0.0 0.00 0.00 0.00 97 1019.6
20260904062102 75 151 0.0 0.0 0.00 0.00 0.00 97 1019.7
20260904061557 75 151 0.0 0.0 0.00 0.00 0.00 97 1019.7
20260904061054 75 151 0.0 0.0 0.00 0.00 0.00 97 1019.6
20260904060550 75 151 0.0 0.0 0.00 0.00 0.00 96 1019.9
20260904060046 75 151 0.0 0.0 0.00 0.00 0.00 96 1019.7
20260904055540 75 151 0.0 0.0 0.00 0.00 0.00 96 1019.7
20260904055035 75 151 0.0 0.0 0.00 0.00 0.00 96 1019.6
20260904054531 75 151 0.0 0.0 0.00 0.00 0.00 96 1019.9
20260904054027 75 151 0.0 0.0 0.00 0.00 0.00 96 1019.8
20260904053526 75 151 0.0 0.0 0.00 0.00 0.00 96 1020.0
20260904053022 75 151 0.0 0.0 0.00 0.00 0.00 96 1019.9
20260904052518 75 151 0.0 0.0 0.00 0.00 0.00 96 1019.8
20260904052014 75 151 0.0 0.0 0.00 0.00 0.00 96 1019.8
20260904051511 75 151 0.0 0.0 0.00 0.00 0.00 96 1019.7
20260904051009 76 151 0.0 0.0 0.00 0.00 0.00 95 1019.9
20260904050506 76 151 0.0 0.0 0.00 0.00 0.00 95 1019.7
20260904050001 76 151 0.0 0.0 0.00 0.00 0.00 95 1019.8
20260904045456 76 151 0.0 0.0 0.00 0.00 0.00 95 1019.8
20260904044950 76 151 0.0 0.0 0.00 0.00 0.00 95 1019.7
20260904044447 76 151 0.0 0.0 0.00 0.00 0.00 95 1019.8
20260904043943 76 151 0.0 0.0 0.00 0.00 0.00 95 1019.7
20260904043439 76 151 0.0 0.0 0.00 0.00 0.00 94 1019.8
20260904042934 76 151 0.0 0.0 0.00 0.00 0.00 94 1019.6
20260904042431 77 151 0.0 0.0 0.00 0.00 0.00 94 1019.6
20260904041925 77 151 0.0 0.0 0.00 0.00 0.00 94 1019.6
20260904041422 77 151 0.0 0.0 0.00 0.00 0.00 94 1019.6
20260904040918 77 151 0.0 0.0 0.00 0.00 0.00 94 1019.9
20260904040412 77 151 0.0 0.0 0.00 0.00 0.00 93 1019.6
20260904035908 77 151 0.0 0.0 0.00 0.00 0.00 93 1019.7
20260904035404 77 151 0.0 0.0 0.00 0.00 0.00 93 1019.8
20260904034903 77 151 0.0 0.0 0.00 0.00 0.00 93 1019.5
20260904034358 77 151 0.0 0.0 0.00 0.00 0.00 92 1019.7
20260904033854 77 151 0.0 0.0 0.00 0.00 0.00 92 1019.9
20260904033350 78 151 0.0 0.0 0.00 0.00 0.00 92 1019.8
20260904032847 78 151 0.0 0.0 0.00 0.00 0.00 92 1019.8
20260904032346 78 151 0.0 0.0 0.00 0.00 0.00 91 1019.9
20260904031840 78 151 0.0 0.0 0.00 0.00 0.00 91 1019.8
20260904031336 78 151 0.0 0.0 0.00 0.00 0.00 91 1019.7
20260904030832 78 151 0.0 0.0 0.00 0.00 0.00 91 1019.7
20260904030327 78 151 0.0 0.0 0.00 0.00 0.00 90 1020.1
20260904025823 78 151 0.0 0.0 0.00 0.00 0.00 90 1019.8
20260904025318 78 151 0.0 0.0 0.00 0.00 0.00 89 1019.9
20260904024813 78 151 0.0 0.0 0.00 0.00 0.00 89 1019.8
20260904024308 79 151 0.0 0.0 0.00 0.00 0.00 89 1019.9
20260904023805 79 151 0.0 0.0 0.00 0.00 0.00 88 1019.9
20260904023300 79 151 0.0 0.0 0.00 0.00 0.00 88 1019.9